Lancaster, CA

1:53 AM PDT on July 26, 2017 (GMT -0700)
Gen Fox

Weather History for KWJF - November, 2012

Change the Weather History Date:

Saturday, November 17, 2012

  Actual Average Record
Temperature  
Mean Temperature 56 °F 51 °F  
Max Temperature 65 °F 66 °F 81 °F (2006)
Min Temperature 47 °F 35 °F 12 °F (1958)
Degree Days  
Heating Degree Days 9    
Month to date heating degree days 199  
Since 1 July heating degree days 291  
Cooling Degree Days 0    
Month to date cooling degree days 0  
Year to date cooling degree days 2282  
Growing Degree Days 6 (Base 50)    
Moisture  
Dew Point 46 °F    
Average Humidity 68    
Maximum Humidity 83    
Minimum Humidity 52    
Precipitation  
Precipitation T in 0.02 in 0.82 in (1965)
Month to date precipitation T 0.28  
Year to date precipitation 1.74 5.97  
Since 1 July precipitation 0.04  
Snow  
Snow 0.00 in - 0.00 in ()
Month to date snowfall 0.0  
Since 1 July snowfall 0.0  
Since 1 September snowfall 0.0  
Snow Depth 0.00 in    
Sea Level Pressure  
Sea Level Pressure 30.06 in    
Wind  
Wind Speed 9 mph (WSW)    
Max Wind Speed 20 mph    
Max Gust Speed 24 mph    
Visibility 10 miles    
Events Rain    
T = Trace of Precipitation, MM = Missing Value Source: NWS Daily Summary

Daily Weather History Graph

Daily Weather History Graph

Search for Another Location

Airport or City:

Trip Planner

Search our weather history database for the weather conditions in past years. The results will help you decide how hot, cold, wet, or windy it might be!

Date:

Astronomy

Nov. 17, 2012 Rise Set
Actual Time 6:29 AM PST 4:46 PM PST
Civil Twilight 6:02 AM PST 5:13 PM PST
Nautical Twilight 5:31 AM PST 5:43 PM PST
Astronomical Twilight 5:01 AM PST 6:13 PM PST
Moon 10:17 AM PST (11/17) 9:00 PM PST (11/17)
Length of Visible Light 11h 10m
Length of Day
10h 16m
Waxing Crescent, 21% of the Moon is Illuminated
Nov 17
Waxing Crescent
Nov 20
First Quarter
Nov 28
Full
Dec 6
Last Quarter
Dec 13
New

Hourly Weather History & Observations

Time (PST) Temp. Dew Point Humidity Pressure Visibility Wind Dir Wind Speed Gust Speed Precip Events Conditions
12:56 AM 48.9 °F 42.1 °F 77% 30.06 in 8.0 mi NNW 8.1 mph - N/A   Clear
1:56 AM 48.9 °F 43.0 °F 80% 30.05 in 8.0 mi NW 3.5 mph - N/A   Partly Cloudy
2:35 AM 51.8 °F 44.6 °F 76% 30.04 in 10.0 mi WSW 6.9 mph - N/A   Mostly Cloudy
2:56 AM 53.1 °F 46.0 °F 77% 30.02 in 10.0 mi SW 4.6 mph - N/A   Overcast
3:56 AM 53.1 °F 46.0 °F 77% 30.03 in 10.0 mi NE 3.5 mph - N/A   Mostly Cloudy
4:14 AM 51.8 °F 46.4 °F 82% 30.04 in 10.0 mi Calm Calm - N/A   Overcast
4:56 AM 55.0 °F 46.9 °F 74% 30.03 in 10.0 mi West 6.9 mph - N/A   Overcast
5:56 AM 55.0 °F 48.0 °F 77% 30.04 in 10.0 mi SW 9.2 mph - 0.00 in   Mostly Cloudy
6:10 AM 55.4 °F 48.2 °F 77% 30.06 in 10.0 mi SW 6.9 mph - N/A   Mostly Cloudy
6:56 AM 55.0 °F 46.0 °F 72% 30.07 in 10.0 mi SW 8.1 mph - N/A   Overcast
7:56 AM 57.0 °F 45.0 °F 64% 30.08 in 10.0 mi WSW 9.2 mph - N/A   Overcast
8:56 AM 57.0 °F 46.9 °F 69% 30.09 in 10.0 mi WSW 10.4 mph - N/A   Overcast
9:45 AM 57.2 °F 46.4 °F 67% 30.10 in 10.0 mi West 10.4 mph - N/A   Overcast
9:56 AM 59.0 °F 46.0 °F 62% 30.09 in 10.0 mi SW 9.2 mph - N/A   Overcast
10:13 AM 57.2 °F 46.4 °F 67% 30.10 in 10.0 mi West 11.5 mph - N/A   Overcast
10:44 AM 57.2 °F 46.4 °F 67% 30.10 in 10.0 mi WNW 8.1 mph - N/A   Overcast
10:56 AM 59.0 °F 46.9 °F 64% 30.09 in 10.0 mi SW 11.5 mph - N/A   Overcast
11:51 AM 64.4 °F 46.4 °F 52% 30.06 in 10.0 mi WSW 12.7 mph 20.7 mph N/A   Mostly Cloudy
11:56 AM 64.0 °F 46.0 °F 52% 30.05 in 10.0 mi SW 13.8 mph 20.7 mph N/A   Overcast
12:56 PM 62.1 °F 46.9 °F 58% 30.04 in 10.0 mi SW 11.5 mph - N/A   Mostly Cloudy
1:56 PM 62.1 °F 46.0 °F 56% 30.03 in 10.0 mi WSW 10.4 mph 17.3 mph N/A   Overcast
2:56 PM 59.0 °F 48.9 °F 69% 30.03 in 10.0 mi West 13.8 mph - 0.00 in Rain Light Rain
3:56 PM 59.0 °F 48.0 °F 67% 30.03 in 10.0 mi WSW 11.5 mph - 0.00 in   Mostly Cloudy
4:56 PM 57.0 °F 48.0 °F 72% 30.04 in 10.0 mi WSW 11.5 mph - N/A   Clear
5:26 PM 55.4 °F 48.2 °F 77% 30.06 in 10.0 mi WSW 11.5 mph - N/A   Mostly Cloudy
5:56 PM 55.9 °F 46.9 °F 72% 30.06 in 10.0 mi West 10.4 mph - N/A   Overcast
6:21 PM 55.4 °F 46.4 °F 72% 30.06 in 10.0 mi WSW 10.4 mph - N/A   Mostly Cloudy
6:44 PM 55.4 °F 46.4 °F 72% 30.07 in 10.0 mi West 6.9 mph - N/A   Mostly Cloudy
6:56 PM 55.0 °F 46.9 °F 74% 30.07 in 10.0 mi WSW 9.2 mph - N/A   Overcast
7:31 PM 55.4 °F 48.2 °F 77% 30.07 in 10.0 mi WSW 6.9 mph - N/A   Scattered Clouds
7:56 PM 53.1 °F 46.0 °F 77% 30.07 in 10.0 mi Calm Calm - N/A   Clear
8:56 PM 52.0 °F 45.0 °F 77% 30.09 in 10.0 mi WNW 3.5 mph - N/A   Clear
9:56 PM 50.0 °F 45.0 °F 83% 30.09 in 10.0 mi WNW 8.1 mph - N/A   Clear
10:56 PM 51.1 °F 46.0 °F 83% 30.10 in 10.0 mi West 9.2 mph - N/A   Clear
11:56 PM 50.0 °F 45.0 °F 83% 30.10 in 10.0 mi WSW 8.1 mph - N/A   Clear